Location: Appeville
(49.3218°N, 1.3427°W)
Time: 08:38:53
(UTC+00:00)

Cosmos 2297 Rocket - Pass Details

Date: 08 December 2019
Orbit: 838 x 845 km, 71.0° (Epoch: 18 January)

Event Time Altitude Azimuth Distance (km) Brightness Sun altitude
Exits shadow 05:52:16 23° 320° (NW) 1,718 3.3 -17.8°
Drops below altitude 10° 05:56:38 10° 11° (N) 2,470 4.6 -17.1°
Sets 05:59:38 0° 26° (NNE) 3,409 5.5 -16.6°
